Time,TemperatureF,DewpointF,PressureIn,WindDirection,WindDirectionDegrees,WindSpeedMPH,WindSpeedGustMPH,Humidity,HourlyPrecipIn,Conditions,Clouds,dailyrainin,SoftwareType,DateUTC
2013-04-28 00:01:00,40.8,36.7,30.34,East,90,0.0,0.0,85,0.00,,,0.00,pywws,2013-04-28 04:01:00,
2013-04-28 00:02:00,41.0,36.5,30.34,East,90,0.0,0.0,84,0.00,,,0.00,pywws,2013-04-28 04:02:00,
2013-04-28 00:03:00,41.2,36.7,30.34,East,90,0.0,0.0,84,0.00,,,0.00,pywws,2013-04-28 04:03:00,
2013-04-28 00:04:00,41.2,36.7,30.35,East,90,0.0,0.0,84,0.00,,,0.00,pywws,2013-04-28 04:04:00,
2013-04-28 00:07:00,41.2,36.7,30.35,East,90,0.0,0.0,84,0.00,,,0.00,pywws,2013-04-28 04:07:00,
2013-04-28 00:13:00,40.8,36.7,30.35,East,90,0.0,0.0,85,0.00,,,0.00,pywws,2013-04-28 04:13:00,
2013-04-28 00:19:00,40.8,37.0,30.34,East,90,0.0,0.0,86,0.00,,,0.00,pywws,2013-04-28 04:19:00,
2013-04-28 00:24:00,40.1,36.3,30.35,East,90,0.0,0.0,86,0.00,,,0.00,pywws,2013-04-28 04:24:00,
2013-04-28 00:30:00,39.7,35.9,30.35,East,90,0.0,0.0,86,0.00,,,0.00,pywws,2013-04-28 04:30:00,
2013-04-28 00:35:00,39.2,35.7,30.34,East,90,0.0,0.0,87,0.00,,,0.00,pywws,2013-04-28 04:35:00,
2013-04-28 00:41:00,39.7,36.5,30.34,East,90,0.0,0.0,88,0.00,,,0.00,pywws,2013-04-28 04:41:00,
2013-04-28 00:47:00,38.8,35.9,30.34,East,90,0.0,0.0,89,0.00,,,0.00,pywws,2013-04-28 04:47:00,
2013-04-28 00:52:00,39.2,36.2,30.34,East,90,0.0,0.0,89,0.00,,,0.00,pywws,2013-04-28 04:52:00,
2013-04-28 00:58:00,39.2,36.5,30.34,East,90,0.0,0.0,90,0.00,,,0.00,pywws,2013-04-28 04:58:00,
2013-04-28 01:04:00,39.2,36.8,30.34,East,90,0.0,0.0,91,0.00,,,0.00,pywws,2013-04-28 05:04:00,
2013-04-28 01:10:00,38.7,36.5,30.34,East,90,0.0,0.0,92,0.00,,,0.00,pywws,2013-04-28 05:10:00,
2013-04-28 01:15:00,38.7,36.5,30.34,East,90,0.0,0.0,92,0.00,,,0.00,pywws,2013-04-28 05:15:00,
2013-04-28 01:21:00,38.3,36.2,30.33,East,90,0.0,0.0,92,0.00,,,0.00,pywws,2013-04-28 05:21:00,
2013-04-28 01:27:00,37.8,35.9,30.33,East,90,0.0,0.0,93,0.00,,,0.00,pywws,2013-04-28 05:27:00,
2013-04-28 01:33:00,38.7,37.1,30.33,East,90,0.0,0.0,94,0.00,,,0.00,pywws,2013-04-28 05:33:00,
2013-04-28 01:39:00,38.3,36.7,30.32,East,90,0.0,0.0,94,0.00,,,0.00,pywws,2013-04-28 05:39:00,
2013-04-28 01:46:00,38.1,36.8,30.32,East,90,0.0,0.0,95,0.00,,,0.00,pywws,2013-04-28 05:46:00,
2013-04-28 01:51:00,38.1,36.8,30.32,East,90,0.0,0.0,95,0.00,,,0.00,pywws,2013-04-28 05:51:00,
2013-04-28 01:58:00,37.8,36.5,30.32,East,90,0.0,0.0,95,0.00,,,0.00,pywws,2013-04-28 05:58:00,
2013-04-28 02:03:00,37.8,36.5,30.32,East,90,0.0,0.0,95,0.00,,,0.00,pywws,2013-04-28 06:03:00,
2013-04-28 02:09:00,37.6,36.3,30.32,East,90,0.0,0.0,95,0.00,,,0.00,pywws,2013-04-28 06:09:00,
2013-04-28 02:15:00,37.4,36.1,30.32,East,90,0.0,0.0,95,0.00,,,0.00,pywws,2013-04-28 06:15:00,
2013-04-28 02:20:00,37.0,34.9,30.32,East,90,0.0,0.0,92,0.00,,,0.00,pywws,2013-04-28 06:20:00,
2013-04-28 02:26:00,36.7,34.6,30.32,East,90,0.0,0.0,92,0.00,,,0.00,pywws,2013-04-28 06:26:00,
2013-04-28 02:31:00,36.5,34.4,30.32,East,90,0.0,0.0,92,0.00,,,0.00,pywws,2013-04-28 06:31:00,
2013-04-28 02:37:00,37.0,34.9,30.32,East,90,0.0,0.0,92,0.00,,,0.00,pywws,2013-04-28 06:37:00,
2013-04-28 02:43:00,36.5,34.4,30.31,East,90,0.0,0.0,92,0.00,,,0.00,pywws,2013-04-28 06:43:00,
2013-04-28 02:48:00,36.5,34.4,30.31,East,90,0.0,0.0,92,0.00,,,0.00,pywws,2013-04-28 06:48:00,
2013-04-28 02:54:00,36.1,34.0,30.31,East,90,0.0,0.0,92,0.00,,,0.00,pywws,2013-04-28 06:54:00,
2013-04-28 03:00:00,36.7,34.9,30.31,East,90,0.0,0.0,93,0.00,,,0.00,pywws,2013-04-28 07:00:00,
2013-04-28 03:06:00,36.3,34.5,30.31,East,90,0.0,0.0,93,0.00,,,0.00,pywws,2013-04-28 07:06:00,
2013-04-28 03:11:00,36.1,34.3,30.31,East,90,0.0,0.0,93,0.00,,,0.00,pywws,2013-04-28 07:11:00,
2013-04-28 03:17:00,35.8,34.0,30.31,East,90,0.0,0.0,93,0.00,,,0.00,pywws,2013-04-28 07:17:00,
2013-04-28 03:23:00,36.0,34.1,30.31,East,90,0.0,0.0,93,0.00,,,0.00,pywws,2013-04-28 07:23:00,
2013-04-28 03:29:00,35.8,34.2,30.31,East,90,0.0,0.0,94,0.00,,,0.00,pywws,2013-04-28 07:29:00,
2013-04-28 03:37:00,36.0,34.4,30.31,East,90,0.0,0.0,94,0.00,,,0.00,pywws,2013-04-28 07:37:00,
2013-04-28 03:43:00,35.8,34.2,30.31,East,90,0.0,0.0,94,0.00,,,0.00,pywws,2013-04-28 07:43:00,
2013-04-28 03:48:00,35.6,34.0,30.31,East,90,0.0,0.0,94,0.00,,,0.00,pywws,2013-04-28 07:48:00,
2013-04-28 03:55:00,35.2,34.0,30.31,East,90,0.0,0.0,95,0.00,,,0.00,pywws,2013-04-28 07:55:00,
2013-04-28 04:02:00,35.4,34.1,30.31,East,90,0.0,0.0,95,0.00,,,0.00,pywws,2013-04-28 08:02:00,
2013-04-28 04:08:00,35.2,34.2,30.31,East,90,0.0,0.0,96,0.00,,,0.00,pywws,2013-04-28 08:08:00,
2013-04-28 04:14:00,35.2,34.2,30.31,East,90,0.0,0.0,96,0.00,,,0.00,pywws,2013-04-28 08:14:00,
2013-04-28 04:19:00,35.1,34.0,30.31,East,90,0.0,0.0,96,0.00,,,0.00,pywws,2013-04-28 08:19:00,
2013-04-28 04:26:00,35.2,34.2,30.30,East,90,0.0,0.0,96,0.00,,,0.00,pywws,2013-04-28 08:26:00,
2013-04-28 04:31:00,34.7,33.7,30.30,East,90,0.0,0.0,96,0.00,,,0.00,pywws,2013-04-28 08:31:00,
2013-04-28 04:38:00,34.2,33.1,30.31,East,90,0.0,0.0,96,0.00,,,0.00,pywws,2013-04-28 08:38:00,
2013-04-28 04:44:00,33.6,32.9,30.30,East,90,0.0,0.0,97,0.00,,,0.00,pywws,2013-04-28 08:44:00,
2013-04-28 04:50:00,34.2,33.1,30.30,East,90,0.0,0.0,96,0.00,,,0.00,pywws,2013-04-28 08:50:00,
2013-04-28 04:55:00,34.0,33.0,30.30,East,90,0.0,0.0,96,0.00,,,0.00,pywws,2013-04-28 08:55:00,
2013-04-28 05:01:00,34.2,33.1,30.30,East,90,0.0,0.0,96,0.00,,,0.00,pywws,2013-04-28 09:01:00,
2013-04-28 05:07:00,34.0,33.0,30.30,East,90,0.0,0.0,96,0.00,,,0.00,pywws,2013-04-28 09:07:00,
2013-04-28 05:13:00,34.0,33.0,30.31,East,90,0.0,0.0,96,0.00,,,0.00,pywws,2013-04-28 09:13:00,
2013-04-28 05:19:00,33.8,32.8,30.30,East,90,0.0,0.0,96,0.00,,,0.00,pywws,2013-04-28 09:19:00,
2013-04-28 05:24:00,34.2,33.1,30.30,East,90,0.0,0.0,96,0.00,,,0.00,pywws,2013-04-28 09:24:00,
2013-04-28 05:30:00,34.0,33.0,30.30,East,90,0.0,0.0,96,0.00,,,0.00,pywws,2013-04-28 09:30:00,
2013-04-28 05:35:00,33.4,32.7,30.30,East,90,0.0,0.0,97,0.00,,,0.00,pywws,2013-04-28 09:35:00,
2013-04-28 05:41:00,33.6,32.9,30.30,East,90,0.0,0.0,97,0.00,,,0.00,pywws,2013-04-28 09:41:00,
2013-04-28 05:47:00,33.3,32.5,30.30,East,90,0.0,0.0,97,0.00,,,0.00,pywws,2013-04-28 09:47:00,
2013-04-28 05:53:00,33.1,32.3,30.30,East,90,0.0,0.0,97,0.00,,,0.00,pywws,2013-04-28 09:53:00,
2013-04-28 05:59:00,33.3,32.5,30.30,East,90,0.0,0.0,97,0.00,,,0.00,pywws,2013-04-28 09:59:00,
2013-04-28 06:06:00,33.4,32.9,30.30,East,90,0.0,0.0,98,0.00,,,0.00,pywws,2013-04-28 10:06:00,
2013-04-28 06:12:00,33.8,33.0,30.30,East,90,0.0,0.0,97,0.00,,,0.00,pywws,2013-04-28 10:12:00,
2013-04-28 06:18:00,33.4,32.9,30.30,East,90,0.0,0.0,98,0.00,,,0.00,pywws,2013-04-28 10:18:00,
2013-04-28 06:23:00,33.8,33.0,30.30,East,90,0.0,0.0,97,0.00,,,0.00,pywws,2013-04-28 10:23:00,
2013-04-28 06:29:00,34.2,33.4,30.31,East,90,0.0,0.0,97,0.00,,,0.00,pywws,2013-04-28 10:29:00,
2013-04-28 06:35:00,34.5,33.8,30.31,East,90,0.0,0.0,97,0.00,,,0.00,pywws,2013-04-28 10:35:00,
2013-04-28 06:41:00,35.1,34.6,30.31,East,90,0.0,0.0,98,0.00,,,0.00,pywws,2013-04-28 10:41:00,
2013-04-28 06:47:00,35.6,34.8,30.31,East,90,0.0,0.0,97,0.00,,,0.00,pywws,2013-04-28 10:47:00,
2013-04-28 06:52:00,35.8,35.0,30.32,East,90,0.0,0.0,97,0.00,,,0.00,pywws,2013-04-28 10:52:00,
2013-04-28 06:58:00,36.3,35.6,30.32,East,90,0.0,0.0,97,0.00,,,0.00,pywws,2013-04-28 10:58:00,
2013-04-28 07:03:00,37.8,37.5,30.32,East,90,0.0,0.0,99,0.00,,,0.00,pywws,2013-04-28 11:03:00,
2013-04-28 07:09:00,40.3,40.0,30.32,East,90,0.0,0.0,99,0.00,,,0.00,pywws,2013-04-28 11:09:00,
2013-04-28 07:15:00,39.4,39.1,30.32,East,90,0.0,0.0,99,0.00,,,0.00,pywws,2013-04-28 11:15:00,
2013-04-28 07:21:00,40.5,40.2,30.32,North,0,0.0,0.0,99,0.00,,,0.00,pywws,2013-04-28 11:21:00,
2013-04-28 07:27:00,41.4,41.1,30.32,North,0,0.0,0.0,99,0.00,,,0.00,pywws,2013-04-28 11:27:00,
2013-04-28 07:32:00,43.2,42.6,30.33,North,0,0.0,0.0,98,0.00,,,0.00,pywws,2013-04-28 11:32:00,
2013-04-28 07:38:00,45.1,44.3,30.33,North,0,0.0,0.0,97,0.00,,,0.00,pywws,2013-04-28 11:38:00,
2013-04-28 07:43:00,47.3,47.0,30.33,North,0,0.0,0.0,99,0.00,,,0.00,pywws,2013-04-28 11:43:00,
2013-04-28 07:49:00,50.0,48.3,30.33,West,270,0.0,0.0,94,0.00,,,0.00,pywws,2013-04-28 11:49:00,
2013-04-28 07:55:00,50.7,46.4,30.34,East,90,0.0,0.0,85,0.00,,,0.00,pywws,2013-04-28 11:55:00,
2013-04-28 08:00:00,53.4,45.7,30.34,East,90,0.0,0.0,75,0.00,,,0.00,pywws,2013-04-28 12:00:00,
2013-04-28 08:06:00,53.4,43.1,30.34,West,270,0.0,0.0,68,0.00,,,0.00,pywws,2013-04-28 12:06:00,
2013-04-28 08:11:00,52.7,40.9,30.34,North,0,0.0,0.0,64,0.00,,,0.00,pywws,2013-04-28 12:11:00,
2013-04-28 08:17:00,51.6,40.2,30.34,South,180,0.0,0.0,65,0.00,,,0.00,pywws,2013-04-28 12:17:00,
2013-04-28 08:23:00,53.1,41.2,30.34,West,270,0.0,0.0,64,0.00,,,0.00,pywws,2013-04-28 12:23:00,
2013-04-28 08:28:00,54.9,42.5,30.34,NW,315,0.0,0.0,63,0.00,,,0.00,pywws,2013-04-28 12:28:00,
2013-04-28 08:34:00,55.0,41.8,30.34,North,0,0.0,0.0,61,0.00,,,0.00,pywws,2013-04-28 12:34:00,
2013-04-28 08:39:00,53.6,40.5,30.34,North,0,0.0,0.0,61,0.00,,,0.00,pywws,2013-04-28 12:39:00,
2013-04-28 08:45:00,56.8,42.7,30.34,West,270,0.0,0.0,59,0.00,,,0.00,pywws,2013-04-28 12:45:00,
2013-04-28 08:51:00,58.3,42.2,30.34,South,180,0.0,0.0,55,0.00,,,0.00,pywws,2013-04-28 12:51:00,
2013-04-28 08:56:00,55.6,38.7,30.34,South,180,0.0,0.0,53,0.00,,,0.00,pywws,2013-04-28 12:56:00,
2013-04-28 09:02:00,57.0,40.1,30.34,South,180,0.0,0.0,53,0.00,,,0.00,pywws,2013-04-28 13:02:00,
2013-04-28 09:07:00,58.6,41.1,30.34,NE,45,0.0,0.0,52,0.00,,,0.00,pywws,2013-04-28 13:07:00,
2013-04-28 09:13:00,57.0,39.6,30.34,North,0,0.0,0.0,52,0.00,,,0.00,pywws,2013-04-28 13:13:00,
2013-04-28 09:19:00,59.5,40.9,30.34,NE,45,0.0,0.0,50,0.00,,,0.00,pywws,2013-04-28 13:19:00,
2013-04-28 09:24:00,58.1,40.1,30.34,NW,315,0.0,0.0,51,0.00,,,0.00,pywws,2013-04-28 13:24:00,
2013-04-28 09:30:00,59.0,39.3,30.34,NE,45,0.0,0.0,48,0.00,,,0.00,pywws,2013-04-28 13:30:00,
2013-04-28 09:35:00,60.1,39.8,30.34,NW,315,0.0,0.0,47,0.00,,,0.00,pywws,2013-04-28 13:35:00,
2013-04-28 09:41:00,59.7,40.0,30.33,North,0,0.0,0.0,48,0.00,,,0.00,pywws,2013-04-28 13:41:00,
2013-04-28 09:47:00,59.7,40.0,30.33,South,180,0.0,0.0,48,0.00,,,0.00,pywws,2013-04-28 13:47:00,
2013-04-28 09:52:00,59.2,38.4,30.33,SW,225,0.0,0.0,46,0.00,,,0.00,pywws,2013-04-28 13:52:00,
2013-04-28 09:58:00,60.4,40.1,30.34,East,90,0.0,0.0,47,0.00,,,0.00,pywws,2013-04-28 13:58:00,
2013-04-28 10:03:00,59.9,38.5,30.33,South,180,0.0,0.0,45,0.00,,,0.00,pywws,2013-04-28 14:03:00,
2013-04-28 10:09:00,60.3,38.3,30.34,West,270,0.0,0.0,44,0.00,,,0.00,pywws,2013-04-28 14:09:00,
2013-04-28 10:15:00,60.4,39.6,30.34,West,270,0.0,0.7,46,0.00,,,0.00,pywws,2013-04-28 14:15:00,
2013-04-28 10:20:00,61.3,39.2,30.33,West,270,0.0,0.0,44,0.00,,,0.00,pywws,2013-04-28 14:20:00,
2013-04-28 10:26:00,61.9,40.3,30.34,SW,225,0.0,0.0,45,0.00,,,0.00,pywws,2013-04-28 14:26:00,
2013-04-28 10:31:00,62.6,40.4,30.33,West,270,0.0,0.0,44,0.00,,,0.00,pywws,2013-04-28 14:31:00,
2013-04-28 10:37:00,63.3,39.8,30.33,South,180,0.0,0.0,42,0.00,,,0.00,pywws,2013-04-28 14:37:00,
2013-04-28 10:43:00,63.0,39.5,30.33,SW,225,0.0,0.0,42,0.00,,,0.00,pywws,2013-04-28 14:43:00,
2013-04-28 10:48:00,63.5,39.4,30.33,West,270,0.0,0.7,41,0.00,,,0.00,pywws,2013-04-28 14:48:00,
2013-04-28 10:54:00,62.8,35.4,30.32,North,0,0.0,0.0,36,0.00,,,0.00,pywws,2013-04-28 14:54:00,
2013-04-28 10:59:00,64.2,38.1,30.32,SE,135,0.0,0.7,38,0.00,,,0.00,pywws,2013-04-28 14:59:00,
2013-04-28 11:05:00,64.8,37.2,30.32,SE,135,0.0,0.7,36,0.00,,,0.00,pywws,2013-04-28 15:05:00,
2013-04-28 11:11:00,65.5,35.6,30.32,South,180,0.0,0.0,33,0.00,,,0.00,pywws,2013-04-28 15:11:00,
2013-04-28 11:16:00,66.9,34.5,30.32,South,180,0.0,0.0,30,0.00,,,0.00,pywws,2013-04-28 15:16:00,
2013-04-28 11:22:00,67.8,35.2,30.32,SE,135,0.0,0.7,30,0.00,,,0.00,pywws,2013-04-28 15:22:00,
2013-04-28 11:27:00,66.7,31.7,30.31,West,270,0.0,0.0,27,0.00,,,0.00,pywws,2013-04-28 15:27:00,
2013-04-28 11:33:00,66.6,30.6,30.31,SW,225,0.0,3.1,26,0.00,,,0.00,pywws,2013-04-28 15:33:00,
2013-04-28 11:39:00,68.2,33.8,30.31,West,270,0.0,0.0,28,0.00,,,0.00,pywws,2013-04-28 15:39:00,
2013-04-28 11:44:00,68.0,29.9,30.30,NW,315,0.0,0.0,24,0.00,,,0.00,pywws,2013-04-28 15:44:00,
2013-04-28 11:50:00,67.8,32.6,30.30,SW,225,0.7,3.1,27,0.00,,,0.00,pywws,2013-04-28 15:50:00,
2013-04-28 11:55:00,68.7,34.3,30.30,West,270,0.0,0.0,28,0.00,,,0.00,pywws,2013-04-28 15:55:00,
2013-04-28 12:01:00,69.8,29.2,30.30,West,270,0.0,0.0,22,0.00,,,0.00,pywws,2013-04-28 16:01:00,
2013-04-28 12:07:00,69.8,31.4,30.30,North,0,0.0,0.7,24,0.00,,,0.00,pywws,2013-04-28 16:07:00,
2013-04-28 12:12:00,69.6,32.2,30.30,North,0,0.0,0.0,25,0.00,,,0.00,pywws,2013-04-28 16:12:00,
2013-04-28 12:18:00,72.1,34.4,30.30,South,180,0.0,0.0,25,0.00,,,0.00,pywws,2013-04-28 16:18:00,
2013-04-28 12:23:00,70.2,33.7,30.30,West,270,0.0,0.0,26,0.00,,,0.00,pywws,2013-04-28 16:23:00,
2013-04-28 12:29:00,70.5,34.9,30.29,NW,315,0.0,0.0,27,0.00,,,0.00,pywws,2013-04-28 16:29:00,
2013-04-28 12:35:00,73.0,35.1,30.29,West,270,0.0,0.0,25,0.00,,,0.00,pywws,2013-04-28 16:35:00,
2013-04-28 12:40:00,74.8,36.6,30.29,West,270,0.0,0.0,25,0.00,,,0.00,pywws,2013-04-28 16:40:00,
2013-04-28 12:46:00,70.7,30.0,30.29,South,180,0.0,0.0,22,0.00,,,0.00,pywws,2013-04-28 16:46:00,
2013-04-28 12:51:00,71.4,32.7,30.28,SE,135,0.0,0.0,24,0.00,,,0.00,pywws,2013-04-28 16:51:00,
2013-04-28 12:57:00,72.0,31.0,30.28,South,180,0.0,0.0,22,0.00,,,0.00,pywws,2013-04-28 16:57:00,
2013-04-28 13:03:00,72.3,31.3,30.28,West,270,0.0,0.0,22,0.00,,,0.00,pywws,2013-04-28 17:03:00,
2013-04-28 13:08:00,72.9,30.6,30.27,NW,315,0.0,0.0,21,0.00,,,0.00,pywws,2013-04-28 17:08:00,
2013-04-28 13:14:00,73.2,34.3,30.27,North,0,0.0,0.0,24,0.00,,,0.00,pywws,2013-04-28 17:14:00,
2013-04-28 13:19:00,73.6,36.6,30.27,West,270,0.0,0.0,26,0.00,,,0.00,pywws,2013-04-28 17:19:00,
2013-04-28 13:25:00,73.6,35.6,30.27,West,270,0.0,0.0,25,0.00,,,0.00,pywws,2013-04-28 17:25:00,
2013-04-28 13:31:00,75.2,35.9,30.27,South,180,0.0,0.0,24,0.00,,,0.00,pywws,2013-04-28 17:31:00,
2013-04-28 13:36:00,74.1,36.0,30.27,West,270,0.0,0.0,25,0.00,,,0.00,pywws,2013-04-28 17:36:00,
2013-04-28 13:41:00,73.9,34.9,30.27,SW,225,0.0,0.0,24,0.00,,,0.00,pywws,2013-04-28 17:41:00,
2013-04-28 13:47:00,70.0,29.4,30.27,West,270,0.0,0.0,22,0.00,,,0.00,pywws,2013-04-28 17:47:00,
2013-04-28 13:52:00,71.6,29.6,30.27,East,90,0.0,0.0,21,0.00,,,0.00,pywws,2013-04-28 17:52:00,
2013-04-28 13:58:00,74.5,36.3,30.27,West,270,0.0,1.6,25,0.00,,,0.00,pywws,2013-04-28 17:58:00,
2013-04-28 14:03:00,72.3,30.2,30.26,West,270,0.0,0.0,21,0.00,,,0.00,pywws,2013-04-28 18:03:00,
2013-04-28 14:09:00,74.8,36.6,30.26,South,180,0.0,0.0,25,0.00,,,0.00,pywws,2013-04-28 18:09:00,
2013-04-28 14:15:00,74.7,36.5,30.26,North,0,0.0,0.0,25,0.00,,,0.00,pywws,2013-04-28 18:15:00,
2013-04-28 14:20:00,75.2,36.9,30.26,West,270,0.0,2.2,25,0.00,,,0.00,pywws,2013-04-28 18:20:00,
2013-04-28 14:26:00,72.9,30.6,30.25,West,270,0.0,0.0,21,0.00,,,0.00,pywws,2013-04-28 18:26:00,
2013-04-28 14:31:00,75.4,36.1,30.25,South,180,0.0,0.0,24,0.00,,,0.00,pywws,2013-04-28 18:31:00,
2013-04-28 14:37:00,76.6,37.1,30.25,North,0,0.0,0.0,24,0.00,,,0.00,pywws,2013-04-28 18:37:00,
2013-04-28 14:43:00,75.4,36.1,30.25,SW,225,0.0,0.0,24,0.00,,,0.00,pywws,2013-04-28 18:43:00,
2013-04-28 14:48:00,76.5,34.8,30.25,West,270,0.0,0.0,22,0.00,,,0.00,pywws,2013-04-28 18:48:00,
2013-04-28 14:54:00,76.1,36.7,30.24,SW,225,0.0,0.7,24,0.00,,,0.00,pywws,2013-04-28 18:54:00,
2013-04-28 14:59:00,70.2,30.6,30.25,West,270,0.0,3.1,23,0.00,,,0.00,pywws,2013-04-28 18:59:00,
2013-04-28 15:05:00,73.8,37.7,30.24,West,270,0.0,0.0,27,0.00,,,0.00,pywws,2013-04-28 19:05:00,
2013-04-28 15:11:00,73.4,37.4,30.24,West,270,0.0,1.6,27,0.00,,,0.00,pywws,2013-04-28 19:11:00,
2013-04-28 15:16:00,72.3,36.5,30.24,South,180,0.0,0.7,27,0.00,,,0.00,pywws,2013-04-28 19:16:00,
2013-04-28 15:22:00,72.3,34.5,30.24,SE,135,0.0,0.7,25,0.00,,,0.00,pywws,2013-04-28 19:22:00,
2013-04-28 15:27:00,72.7,34.8,30.24,SE,135,0.0,2.2,25,0.00,,,0.00,pywws,2013-04-28 19:27:00,
2013-04-28 15:33:00,73.9,37.8,30.24,South,180,0.0,0.7,27,0.00,,,0.00,pywws,2013-04-28 19:33:00,
2013-04-28 15:39:00,73.4,38.3,30.23,South,180,0.0,1.6,28,0.00,,,0.00,pywws,2013-04-28 19:39:00,
2013-04-28 15:44:00,71.8,35.0,30.23,SE,135,0.0,4.5,26,0.00,,,0.00,pywws,2013-04-28 19:44:00,
2013-04-28 15:50:00,71.8,35.0,30.23,SE,135,0.0,0.7,26,0.00,,,0.00,pywws,2013-04-28 19:50:00,
2013-04-28 15:55:00,72.1,38.1,30.23,West,270,0.7,4.5,29,0.00,,,0.00,pywws,2013-04-28 19:55:00,
2013-04-28 16:01:00,71.6,32.9,30.23,West,270,0.0,0.7,24,0.00,,,0.00,pywws,2013-04-28 20:01:00,
2013-04-28 16:07:00,71.2,35.5,30.23,SW,225,0.7,5.4,27,0.00,,,0.00,pywws,2013-04-28 20:07:00,
2013-04-28 16:12:00,71.1,34.4,30.23,South,180,0.0,0.0,26,0.00,,,0.00,pywws,2013-04-28 20:12:00,
2013-04-28 16:18:00,72.1,34.4,30.22,West,270,0.0,2.2,25,0.00,,,0.00,pywws,2013-04-28 20:18:00,
2013-04-28 16:23:00,71.1,33.5,30.23,SW,225,0.0,3.8,25,0.00,,,0.00,pywws,2013-04-28 20:23:00,
2013-04-28 16:29:00,70.5,33.0,30.22,West,270,0.0,0.0,25,0.00,,,0.00,pywws,2013-04-28 20:29:00,
2013-04-28 16:35:00,71.2,34.6,30.22,West,270,0.0,1.6,26,0.00,,,0.00,pywws,2013-04-28 20:35:00,
2013-04-28 16:40:00,71.6,34.9,30.22,West,270,1.6,7.6,26,0.00,,,0.00,pywws,2013-04-28 20:40:00,
2013-04-28 16:46:00,70.3,32.8,30.22,SW,225,0.0,0.0,25,0.00,,,0.00,pywws,2013-04-28 20:46:00,
2013-04-28 16:51:00,69.4,33.1,30.22,SW,225,0.0,0.0,26,0.00,,,0.00,pywws,2013-04-28 20:51:00,
2013-04-28 16:57:00,69.6,34.2,30.23,SW,225,0.0,2.2,27,0.00,,,0.00,pywws,2013-04-28 20:57:00,
2013-04-28 17:03:00,69.1,32.8,30.23,South,180,0.0,0.7,26,0.00,,,0.00,pywws,2013-04-28 21:03:00,
2013-04-28 17:08:00,69.1,34.6,30.22,South,180,0.0,0.7,28,0.00,,,0.00,pywws,2013-04-28 21:08:00,
2013-04-28 17:14:00,68.5,32.3,30.22,SE,135,0.0,0.0,26,0.00,,,0.00,pywws,2013-04-28 21:14:00,
2013-04-28 17:19:00,68.9,34.4,30.23,East,90,0.0,0.7,28,0.00,,,0.00,pywws,2013-04-28 21:19:00,
2013-04-28 17:25:00,68.0,31.8,30.23,SE,135,0.0,1.6,26,0.00,,,0.00,pywws,2013-04-28 21:25:00,
2013-04-28 17:31:00,67.5,32.3,30.22,West,270,0.0,0.0,27,0.00,,,0.00,pywws,2013-04-28 21:31:00,
2013-04-28 17:37:00,66.9,31.8,30.22,East,90,0.0,4.5,27,0.00,,,0.00,pywws,2013-04-28 21:37:00,
2013-04-28 17:43:00,66.9,32.7,30.23,SW,225,0.7,2.2,28,0.00,,,0.00,pywws,2013-04-28 21:43:00,
2013-04-28 17:48:00,65.7,33.4,30.23,SE,135,0.0,1.6,30,0.00,,,0.00,pywws,2013-04-28 21:48:00,
2013-04-28 17:54:00,65.7,33.4,30.23,SE,135,0.7,5.4,30,0.00,,,0.00,pywws,2013-04-28 21:54:00,
2013-04-28 17:59:00,65.3,31.4,30.23,South,180,0.7,4.5,28,0.00,,,0.00,pywws,2013-04-28 21:59:00,
2013-04-28 18:05:00,64.6,32.4,30.23,SW,225,0.0,0.0,30,0.00,,,0.00,pywws,2013-04-28 22:05:00,
2013-04-28 18:11:00,64.4,30.6,30.23,SW,225,0.7,8.3,28,0.00,,,0.00,pywws,2013-04-28 22:11:00,
2013-04-28 18:16:00,64.2,30.4,30.23,South,180,0.0,0.7,28,0.00,,,0.00,pywws,2013-04-28 22:16:00,
2013-04-28 18:22:00,63.9,30.1,30.23,SW,225,0.0,2.2,28,0.00,,,0.00,pywws,2013-04-28 22:22:00,
2013-04-28 18:27:00,63.7,30.0,30.23,West,270,0.7,4.5,28,0.00,,,0.00,pywws,2013-04-28 22:27:00,
2013-04-28 18:33:00,62.8,30.1,30.24,SW,225,0.0,0.0,29,0.00,,,0.00,pywws,2013-04-28 22:33:00,
2013-04-28 18:39:00,62.6,29.9,30.23,SE,135,0.0,0.7,29,0.00,,,0.00,pywws,2013-04-28 22:39:00,
2013-04-28 18:44:00,62.2,31.2,30.24,South,180,0.0,2.2,31,0.00,,,0.00,pywws,2013-04-28 22:44:00,
2013-04-28 18:50:00,62.1,31.1,30.23,West,270,0.7,3.8,31,0.00,,,0.00,pywws,2013-04-28 22:50:00,
2013-04-28 18:55:00,62.1,30.3,30.23,West,270,0.0,0.7,30,0.00,,,0.00,pywws,2013-04-28 22:55:00,
2013-04-28 19:01:00,61.5,29.8,30.24,South,180,0.0,0.7,30,0.00,,,0.00,pywws,2013-04-28 23:01:00,
2013-04-28 19:07:00,61.2,28.7,30.24,SE,135,0.0,1.6,29,0.00,,,0.00,pywws,2013-04-28 23:07:00,
2013-04-28 19:13:00,60.8,28.3,30.24,West,270,0.0,0.7,29,0.00,,,0.00,pywws,2013-04-28 23:13:00,
2013-04-28 19:19:00,61.0,27.6,30.24,East,90,0.0,0.0,28,0.00,,,0.00,pywws,2013-04-28 23:19:00,
2013-04-28 19:24:00,60.4,28.9,30.24,South,180,0.0,0.0,30,0.00,,,0.00,pywws,2013-04-28 23:24:00,
2013-04-28 19:30:00,60.1,28.6,30.23,SE,135,0.0,0.0,30,0.00,,,0.00,pywws,2013-04-28 23:30:00,
2013-04-28 19:35:00,59.4,29.5,30.24,SW,225,0.0,0.0,32,0.00,,,0.00,pywws,2013-04-28 23:35:00,
2013-04-28 19:41:00,59.4,30.3,30.24,SW,225,0.0,0.0,33,0.00,,,0.00,pywws,2013-04-28 23:41:00,
2013-04-28 19:47:00,59.0,29.9,30.24,West,270,0.0,0.0,33,0.00,,,0.00,pywws,2013-04-28 23:47:00,
2013-04-28 19:52:00,57.7,30.3,30.24,West,270,0.0,0.0,35,0.00,,,0.00,pywws,2013-04-28 23:52:00,
2013-04-28 19:58:00,58.8,29.8,30.24,SE,135,0.0,4.5,33,0.00,,,0.00,pywws,2013-04-28 23:58:00,
2013-04-28 20:03:00,58.3,28.6,30.24,South,180,0.0,2.2,32,0.00,,,0.00,pywws,2013-04-29 00:03:00,
2013-04-28 20:09:00,57.7,28.8,30.24,SE,135,0.0,0.7,33,0.00,,,0.00,pywws,2013-04-29 00:09:00,
2013-04-28 20:15:00,57.7,28.8,30.24,SW,225,0.0,0.0,33,0.00,,,0.00,pywws,2013-04-29 00:15:00,
2013-04-28 20:20:00,57.4,29.2,30.24,South,180,0.0,0.0,34,0.00,,,0.00,pywws,2013-04-29 00:20:00,
2013-04-28 20:26:00,57.6,29.4,30.24,SE,135,0.0,1.6,34,0.00,,,0.00,pywws,2013-04-29 00:26:00,
2013-04-28 20:31:00,57.0,28.9,30.25,SE,135,0.0,0.0,34,0.00,,,0.00,pywws,2013-04-29 00:31:00,
2013-04-28 20:37:00,56.5,29.2,30.25,West,270,0.0,0.0,35,0.00,,,0.00,pywws,2013-04-29 00:37:00,
2013-04-28 20:43:00,55.9,28.7,30.25,South,180,0.0,0.0,35,0.00,,,0.00,pywws,2013-04-29 00:43:00,
2013-04-28 20:48:00,55.9,28.7,30.25,SW,225,0.0,0.0,35,0.00,,,0.00,pywws,2013-04-29 00:48:00,
2013-04-28 20:54:00,55.2,28.1,30.26,NW,315,0.0,0.0,35,0.00,,,0.00,pywws,2013-04-29 00:54:00,
2013-04-28 20:59:00,55.4,28.9,30.26,South,180,0.0,0.0,36,0.00,,,0.00,pywws,2013-04-29 00:59:00,
2013-04-28 21:05:00,55.4,28.9,30.26,South,180,0.0,0.0,36,0.00,,,0.00,pywws,2013-04-29 01:05:00,
2013-04-28 21:11:00,54.7,28.9,30.27,South,180,0.0,0.0,37,0.00,,,0.00,pywws,2013-04-29 01:11:00,
2013-04-28 21:16:00,54.3,27.9,30.27,South,180,0.0,0.0,36,0.00,,,0.00,pywws,2013-04-29 01:16:00,
2013-04-28 21:22:00,54.1,27.8,30.27,North,0,0.0,0.0,36,0.00,,,0.00,pywws,2013-04-29 01:22:00,
2013-04-28 21:28:00,54.1,27.8,30.27,South,180,0.0,0.0,36,0.00,,,0.00,pywws,2013-04-29 01:28:00,
2013-04-28 21:35:00,53.8,28.1,30.27,West,270,0.0,0.0,37,0.00,,,0.00,pywws,2013-04-29 01:35:00,
2013-04-28 21:41:00,52.5,28.9,30.27,West,270,0.0,0.0,40,0.00,,,0.00,pywws,2013-04-29 01:41:00,
2013-04-28 21:47:00,51.4,29.7,30.27,West,270,0.0,0.0,43,0.00,,,0.00,pywws,2013-04-29 01:47:00,
2013-04-28 21:52:00,51.8,29.4,30.27,South,180,0.0,0.0,42,0.00,,,0.00,pywws,2013-04-29 01:52:00,
2013-04-28 21:58:00,52.7,30.3,30.27,West,270,0.0,0.7,42,0.00,,,0.00,pywws,2013-04-29 01:58:00,
2013-04-28 22:03:00,52.9,28.6,30.27,SW,225,0.0,0.0,39,0.00,,,0.00,pywws,2013-04-29 02:03:00,
2013-04-28 22:09:00,52.2,28.0,30.28,West,270,0.0,0.0,39,0.00,,,0.00,pywws,2013-04-29 02:09:00,
2013-04-28 22:15:00,51.3,29.5,30.27,West,270,0.0,0.0,43,0.00,,,0.00,pywws,2013-04-29 02:15:00,
2013-04-28 22:20:00,50.4,29.3,30.28,West,270,0.0,0.0,44,0.00,,,0.00,pywws,2013-04-29 02:20:00,
2013-04-28 22:26:00,50.5,28.9,30.27,West,270,0.0,0.0,43,0.00,,,0.00,pywws,2013-04-29 02:26:00,
2013-04-28 22:31:00,51.1,29.4,30.27,West,270,0.0,0.0,43,0.00,,,0.00,pywws,2013-04-29 02:31:00,
2013-04-28 22:37:00,50.9,29.2,30.28,West,270,0.0,0.0,43,0.00,,,0.00,pywws,2013-04-29 02:37:00,
2013-04-28 22:43:00,50.4,28.7,30.27,South,180,0.0,0.0,43,0.00,,,0.00,pywws,2013-04-29 02:43:00,
2013-04-28 22:48:00,50.4,28.7,30.28,West,270,0.0,0.0,43,0.00,,,0.00,pywws,2013-04-29 02:48:00,
2013-04-28 22:54:00,49.3,28.3,30.28,West,270,0.0,0.0,44,0.00,,,0.00,pywws,2013-04-29 02:54:00,
2013-04-28 22:59:00,48.9,29.6,30.28,South,180,0.0,0.0,47,0.00,,,0.00,pywws,2013-04-29 02:59:00,
2013-04-28 23:05:00,48.2,28.9,30.27,South,180,0.0,0.0,47,0.00,,,0.00,pywws,2013-04-29 03:05:00,
2013-04-28 23:11:00,47.7,29.9,30.28,South,180,0.0,0.0,50,0.00,,,0.00,pywws,2013-04-29 03:11:00,
2013-04-28 23:16:00,47.5,30.7,30.28,South,180,0.0,0.0,52,0.00,,,0.00,pywws,2013-04-29 03:16:00,
2013-04-28 23:22:00,47.1,30.9,30.28,West,270,0.0,0.0,53,0.00,,,0.00,pywws,2013-04-29 03:22:00,
2013-04-28 23:27:00,48.2,31.9,30.28,West,270,0.0,0.0,53,0.00,,,0.00,pywws,2013-04-29 03:27:00,
2013-04-28 23:34:00,48.7,31.4,30.28,West,270,0.0,0.0,51,0.00,,,0.00,pywws,2013-04-29 03:34:00,
2013-04-28 23:39:00,48.4,31.1,30.29,West,270,0.0,0.0,51,0.00,,,0.00,pywws,2013-04-29 03:39:00,
2013-04-28 23:45:00,48.2,30.9,30.29,South,180,0.0,0.0,51,0.00,,,0.00,pywws,2013-04-29 03:45:00,
2013-04-28 23:51:00,48.2,31.4,30.29,South,180,0.0,0.0,52,0.00,,,0.00,pywws,2013-04-29 03:51:00,
2013-04-28 23:56:00,48.6,32.2,30.28,West,270,0.0,0.0,53,0.00,,,0.00,pywws,2013-04-29 03:56:00,